Waarnemingen

Advertentie
Mijn weer
Manston, Groot Brittannië (3797): temperatuur & dauwpunt: 09.11.2018 19:00:00 - 15.11.2018 19:00:00 (GMT)Manston, Groot Brittannië (3797): temperatuur -20cm & temperatuur -100cm: 09.11.2018 19:00:00 - 15.11.2018 19:00:00 (GMT)Manston, Groot Brittannië (3797): windsnelheid & windstoten: 09.11.2018 19:00:00 - 15.11.2018 19:00:00 (GMT)Manston, Groot Brittannië (3797): windrichting: 09.11.2018 19:00:00 - 15.11.2018 19:00:00 (GMT)Manston, Groot Brittannië (3797): luchtdruk: 09.11.2018 19:00:00 - 15.11.2018 19:00:00 (GMT)Manston, Groot Brittannië (3797): zicht: 09.11.2018 19:00:00 - 15.11.2018 19:00:00 (GMT)Manston, Groot Brittannië (3797): Zonneschijnduur: 09.11.2018 19:00:00 - 15.11.2018 19:00:00 (GMT)Manston, Groot Brittannië (3797): neerslag: 09.11.2018 19:00:00 - 15.11.2018 19:00:00 (GMT)
Datum & Tijd tt [°C] td [°C] tt -20cm [°C] tt -100cm [°C] ff [km/u] ff [kn] fx [km/u] fx [kn] dd ppp [hPa] vv [km] sd [min] rr [mm]
15.11.2018 19:00:00 10,0 9,8 - - 15 8 - - Z 1022,5 2,6 0 0,0
15.11.2018 18:00:00 10,0 9,8 - - 16 9 - - ZZO 1022,0 2,1 0 0,0
15.11.2018 17:00:00 10,0 9,7 - - 15 8 - - ZZO 1021,5 3,7 0 0,0
15.11.2018 16:00:00 10,2 9,8 - - 11 6 - - Z 1021,7 5 0 0,0
15.11.2018 15:00:00 10,8 10,4 - - 11 6 - - Z 1021,6 2,5 0 0,0
15.11.2018 14:00:00 11,5 10,0 - - 16 9 - - ZZO 1021,6 8 54 0,0
15.11.2018 13:00:00 14,0 11,5 - - 15 8 - - ZZO 1021,5 20 60 0,0
15.11.2018 12:00:00 13,4 11,4 - - 16 9 - - ZO 1021,9 16 60 0,0
15.11.2018 11:00:00 13,6 11,8 - - 13 7 - - ZO 1022,1 11 54 0,0
15.11.2018 10:00:00 12,8 11,6 - - 13 7 - - ZZO 1022,6 10 42 0,0
15.11.2018 09:00:00 12,4 11,5 10,2 10,7 13 7 - - ZO 1022,3 9 6 0,0
15.11.2018 08:00:00 11,2 10,8 - - 9 5 - - ZO 1022,2 4,8 0 0,0
15.11.2018 07:00:00 11,3 10,9 - - 11 6 - - ZZO 1021,9 5 0 0,0
15.11.2018 06:00:00 11,3 10,8 - - 9 5 - - ZZO 1021,6 4,9 0 0,0
15.11.2018 05:00:00 11,5 11,0 - - 11 6 - - ZZO 1021,6 7 0 0,0
15.11.2018 04:00:00 11,5 11,1 - - 13 7 - - ZZO 1021,4 6 0 0,0
15.11.2018 03:00:00 11,6 11,0 - - 11 6 - - ZO 1021,5 8 0 0,0
15.11.2018 02:00:00 11,3 10,8 - - 11 6 - - ZZO 1021,9 9 0 0,0
15.11.2018 01:00:00 11,3 10,8 - - 16 9 - - ZZO 1021,7 10 0 0,0
15.11.2018 00:00:00 10,9 10,4 - - 13 7 - - ZZO 1022,0 9 - 0,0
14.11.2018 23:00:00 10,8 10,4 - - 13 7 - - ZZO 1022,2 7 0 0,0
14.11.2018 22:00:00 9,9 9,2 - - 15 8 - - ZZO 1022,3 9 0 0,2
14.11.2018 21:00:00 10,1 9,4 - - 15 8 - - ZO 1022,4 12 0 0,0
14.11.2018 20:00:00 10,1 9,4 - - 15 8 - - ZZO 1022,6 14 0 0,0
14.11.2018 19:00:00 10,4 9,3 - - 18 10 - - ZZO 1022,8 20 0 0,0
14.11.2018 18:00:00 10,3 9,1 - - 15 8 - - ZO 1022,8 45 0 0,0
14.11.2018 17:00:00 9,3 7,7 - - 11 6 - - ZZO 1022,7 21 0 0,0
14.11.2018 16:00:00 10,9 8,6 - - 16 9 - - ZZO 1023,0 29 42 0,0
14.11.2018 15:00:00 11,8 9,0 - - 16 9 - - ZZO 1023,1 23 24 0,0
14.11.2018 14:00:00 11,7 9,3 - - 16 9 - - Z 1023,4 19 54 0,0
14.11.2018 13:00:00 12,1 9,1 - - 21 11 - - Z 1023,7 25 60 0,0
14.11.2018 12:00:00 12,6 9,4 - - 21 11 - - Z 1024,2 40 54 0,0
14.11.2018 11:00:00 12,0 9,4 - - 26 14 - - Z 1024,5 27 6 0,0
14.11.2018 10:00:00 12,5 10,0 - - 24 13 - - Z 1024,7 30 60 0,0
14.11.2018 09:00:00 11,7 10,1 10,0 10,7 21 11 - - Z 1024,6 20 18 0,0
14.11.2018 08:00:00 10,3 9,2 - - 16 9 - - Z 1024,7 18 0 0,0
14.11.2018 07:00:00 9,8 8,8 - - 13 7 - - Z 1024,4 18 0 0,0
14.11.2018 06:00:00 9,7 8,4 - - 11 6 - - Z 1024,4 17 0 0,0
14.11.2018 05:00:00 10,6 9,4 - - 15 8 - - Z 1024,3 16 0 0,0
14.11.2018 04:00:00 10,6 9,7 - - 15 8 - - Z 1024,5 16 0 0,0
14.11.2018 03:00:00 9,8 9,0 - - 13 7 - - Z 1025,1 15 0 0,0
14.11.2018 02:00:00 8,7 7,8 - - 13 7 - - ZZO 1025,6 18 0 0,0
14.11.2018 01:00:00 9,8 8,6 - - 9 5 - - Z 1026,2 18 0 0,0
14.11.2018 00:00:00 9,0 8,3 - - 9 5 - - Z 1026,8 17 - 0,0
13.11.2018 23:00:00 8,9 8,2 - - 9 5 - - Z 1026,6 15 0 0,0
13.11.2018 22:00:00 8,6 7,5 - - 9 5 - - ZZW 1026,7 14 0 0,0
13.11.2018 21:00:00 8,9 7,8 - - 9 5 - - ZZW 1026,7 16 0 0,0
13.11.2018 20:00:00 8,3 7,0 - - 9 5 - - Z 1026,3 16 0 0,0
13.11.2018 19:00:00 9,2 7,9 - - 13 7 - - ZZW 1026,1 15 0 0,0
13.11.2018 18:00:00 9,2 7,3 - - 13 7 - - ZZW 1025,8 19 0 0,0
13.11.2018 17:00:00 9,4 6,9 - - 8 4 - - Z 1025,3 21 0 0,0
13.11.2018 16:00:00 11,0 7,0 - - 13 7 - - ZZW 1024,9 24 36 0,0
13.11.2018 15:00:00 12,4 7,1 - - 18 10 - - ZW 1024,2 35 42 0,0
13.11.2018 14:00:00 13,2 7,1 - - 24 13 - - WZW 1023,6 23 60 0,0
13.11.2018 13:00:00 13,1 7,6 - - 28 15 - - WZW 1023,3 30 60 0,0
13.11.2018 12:00:00 12,8 7,8 - - 26 14 - - WZW 1022,7 45 60 0,0
13.11.2018 11:00:00 12,1 8,4 - - 22 12 - - WZW 1022,3 29 60 0,0
13.11.2018 10:00:00 10,9 8,3 - - 24 13 - - WZW 1021,5 16 60 0,0
13.11.2018 09:00:00 10,0 8,0 10,4 10,7 21 11 - - WZW 1020,6 16 60 0,0
13.11.2018 08:00:00 9,0 7,3 - - 22 12 - - WZW 1019,3 23 0 0,0
13.11.2018 07:00:00 7,8 6,4 - - 16 9 - - ZW 1018,4 35 0 0,0
13.11.2018 06:00:00 8,3 6,5 - - 18 10 - - ZW 1017,2 40 0 0,0
13.11.2018 05:00:00 9,8 8,1 - - 21 11 - - ZW 1016,4 23 0 0,0
13.11.2018 04:00:00 9,2 7,7 - - 18 10 - - ZZW 1015,6 35 0 0,2
13.11.2018 03:00:00 9,8 8,4 - - 16 9 - - ZZW 1015,5 16 0 0,0
13.11.2018 02:00:00 9,2 7,5 - - 13 7 - - ZZW 1015,6 45 0 0,2
13.11.2018 01:00:00 9,2 8,4 - - 15 8 - - Z 1014,8 30 0 0,2
13.11.2018 00:00:00 8,4 7,3 - - 16 9 - - ZZW 1014,7 25 - 4,4
12.11.2018 23:00:00 9,6 7,5 - - 29 16 - - W 1014,8 4,1 0 1,0
12.11.2018 22:00:00 11,5 10,2 - - 22 12 50 27 ZZW 1013,9 18 0 0,4
12.11.2018 21:00:00 11,7 10,3 - - 24 13 - - ZZW 1014,2 8 0 0,6
12.11.2018 20:00:00 11,5 10,2 - - 16 9 - - ZZW 1014,0 4,2 0 0,4
12.11.2018 19:00:00 11,0 9,2 - - 18 10 - - Z 1013,7 22 0 0,0
12.11.2018 18:00:00 11,5 9,8 - - 22 12 - - ZZW 1013,6 18 0 0,0
12.11.2018 17:00:00 11,4 9,6 - - 18 10 - - ZZW 1013,4 21 0 0,0
12.11.2018 16:00:00 11,7 9,4 - - 24 13 - - ZZW 1012,6 23 24 0,0
12.11.2018 15:00:00 12,6 10,0 - - 24 13 - - ZZW 1012,2 30 36 0,0
12.11.2018 14:00:00 12,7 10,5 - - 26 14 - - ZZW 1011,8 23 42 0,0
12.11.2018 13:00:00 11,5 10,2 - - 18 10 - - ZZW 1011,5 25 0 0,2
12.11.2018 12:00:00 11,2 10,3 - - 18 10 - - ZW 1011,5 30 0 5,2
12.11.2018 11:00:00 10,4 8,8 - - 29 16 48 26 ZW 1011,6 5 0 6,6
12.11.2018 10:00:00 11,8 10,9 - - 16 9 - - ZZW 1011,3 3,6 0 0,8
12.11.2018 09:00:00 11,6 10,8 10,4 10,9 15 8 - - Z 1010,4 8 0 1,2
12.11.2018 08:00:00 11,3 10,5 - - 13 7 - - Z 1009,8 18 0 0,0
12.11.2018 07:00:00 10,7 9,7 - - 11 6 - - Z 1009,1 17 0 0,0
12.11.2018 06:00:00 10,7 9,5 - - 11 6 - - ZZO 1008,9 17 0 0,0
12.11.2018 05:00:00 10,6 9,7 - - 8 4 - - Z 1008,7 17 0 0,0
12.11.2018 04:00:00 10,9 10,1 - - 11 6 - - Z 1008,4 15 0 0,0
12.11.2018 03:00:00 10,9 10,3 - - 13 7 - - ZZO 1008,4 15 0 0,0
12.11.2018 02:00:00 10,3 9,6 - - 8 4 - - ZZO 1008,5 15 0 0,0
12.11.2018 01:00:00 10,1 9,4 - - 9 5 - - Z 1008,0 15 0 0,0
12.11.2018 00:00:00 9,5 8,6 - - 9 5 - - Z 1008,3 17 - 0,0
11.11.2018 23:00:00 9,0 8,1 - - 11 6 - - ZZO 1008,1 15 0 0,0
11.11.2018 22:00:00 8,9 7,7 - - 8 4 - - Z 1007,8 16 0 0,0
11.11.2018 21:00:00 8,5 7,4 - - 9 5 - - Z 1007,3 21 0 0,0
11.11.2018 20:00:00 8,0 7,1 - - 9 5 - - Z 1006,5 15 0 0,0
11.11.2018 19:00:00 8,1 7,0 - - 11 6 - - Z 1006,0 20 0 0,0
11.11.2018 18:00:00 8,6 7,1 - - 13 7 - - Z 1005,2 21 0 0,0
11.11.2018 17:00:00 10,0 7,6 - - 18 10 - - ZZW 1004,2 30 0 0,0
11.11.2018 16:00:00 11,4 8,6 - - 18 10 - - ZZW 1003,5 20 24 0,0
11.11.2018 15:00:00 12,3 8,9 - - 18 10 - - ZZW 1002,8 17 36 0,0
11.11.2018 14:00:00 12,4 9,4 - - 24 13 - - ZW 1002,0 18 54 0,0
11.11.2018 13:00:00 10,0 7,6 - - 28 15 54 29 ZZW 1001,5 45 0 1,0
11.11.2018 12:00:00 12,7 9,2 - - 29 16 - - ZZW 1000,7 18 12 0,0
11.11.2018 11:00:00 11,5 10,2 - - 34 18 59 32 ZW 1000,4 19 0 0,0
11.11.2018 10:00:00 12,2 9,8 - - 31 17 48 26 ZW 999,5 13 12 0,0
11.11.2018 09:00:00 11,6 9,6 10,7 10,9 28 15 46 25 ZZW 998,6 16 0 0,2
11.11.2018 08:00:00 11,3 9,9 - - 28 15 48 26 ZZW 997,8 13 0 0,4
11.11.2018 07:00:00 11,1 9,4 - - 29 16 - - ZZW 996,8 17 0 1,4
11.11.2018 06:00:00 11,2 9,8 - - 24 13 - - Z 996,6 15 0 0,2
11.11.2018 05:00:00 10,3 9,2 - - 22 12 - - Z 996,7 7 0 0,6
11.11.2018 04:00:00 9,3 8,7 - - 13 7 - - Z 996,5 35 0 0,8
11.11.2018 03:00:00 9,8 9,1 - - 15 8 - - WZW 996,9 6 0 2,2
11.11.2018 02:00:00 11,1 9,9 - - 22 12 - - Z 996,7 17 0 0,0
11.11.2018 01:00:00 10,8 10,3 - - 16 9 - - ZZW 996,6 17 0 5,0
11.11.2018 00:00:00 11,0 10,4 - - 18 10 - - ZZW 996,7 3,8 - 0,6
10.11.2018 23:00:00 9,8 9,5 - - 9 5 - - ZZW 996,7 27 0 6,0
10.11.2018 22:00:00 9,8 8,8 - - 16 9 - - ZW 996,8 5 0 5,8
10.11.2018 21:00:00 12,4 10,5 - - 28 15 - - Z 996,5 17 0 0,2
10.11.2018 20:00:00 12,1 10,4 - - 26 14 - - Z 996,7 16 0 0,0
10.11.2018 19:00:00 12,1 10,4 - - 24 13 - - ZZO 997,0 15 0 0,0
10.11.2018 18:00:00 12,1 10,6 - - 24 13 - - Z 996,9 8 0 0,0
10.11.2018 17:00:00 11,3 9,8 - - 18 10 - - Z 997,0 11 0 0,0
10.11.2018 16:00:00 11,8 10,2 - - 22 12 - - Z 996,6 11 24 0,2
10.11.2018 15:00:00 12,6 9,6 - - 26 14 - - Z 996,5 19 48 0,0
10.11.2018 14:00:00 13,3 10,8 - - 26 14 - - ZZW 996,4 11 42 0,0
10.11.2018 13:00:00 11,4 10,5 - - 16 9 - - ZZW 996,8 15 0 1,0
10.11.2018 12:00:00 10,4 9,6 - - 16 9 - - Z 997,0 6 0 4,2
10.11.2018 11:00:00 11,4 10,4 - - 18 10 - - Z 997,2 13 0 0,2
10.11.2018 10:00:00 12,1 10,3 - - 15 8 - - Z 997,1 15 0 0,0
10.11.2018 09:00:00 11,3 10,5 10,4 10,7 11 6 - - ZZW 996,9 11 0 0,0
10.11.2018 08:00:00 10,3 9,4 - - 11 6 - - Z 997,0 13 0 0,0
10.11.2018 07:00:00 11,7 10,8 - - 18 10 - - ZW 995,9 14 0 0,0
10.11.2018 06:00:00 11,8 10,8 - - 22 12 - - ZZW 995,3 16 0 0,2
10.11.2018 05:00:00 11,9 11,2 - - 29 16 - - ZZW 994,7 4,9 0 0,2
10.11.2018 04:00:00 11,5 10,9 - - 29 16 48 26 ZZW 994,5 19 0 1,6
10.11.2018 03:00:00 11,7 11,2 - - 35 19 57 31 ZZW 994,4 7 0 2,0
10.11.2018 02:00:00 11,2 10,7 - - 41 22 59 32 Z 994,4 5 0 2,2
10.11.2018 01:00:00 11,2 10,6 - - 39 21 61 33 Z 994,9 5 0 2,2
10.11.2018 00:00:00 10,8 10,2 - - 39 21 59 32 Z 996,1 5 - 2,8
09.11.2018 23:00:00 10,2 9,2 - - 42 23 72 39 Z 997,6 7 0 1,0
09.11.2018 22:00:00 10,7 9,1 - - 41 22 61 33 Z 998,8 8 0 0,8
09.11.2018 21:00:00 12,0 8,4 - - 41 22 59 32 Z 999,6 30 0 0,0
09.11.2018 20:00:00 11,6 8,2 - - 35 19 52 28 ZZO 1000,7 30 0 0,0
09.11.2018 19:00:00 11,7 8,4 - - 34 18 50 27 ZZO 1001,9 35 0 0,0

tt = temperatuur
td = dauwpunt
tt -20cm = temperatuur -20cm
tt -100cm = temperatuur -100cm
ff = windsnelheid
fx = windstoten
dd = windrichting
ppp = luchtdruk
vv = zicht
sd = Zonneschijnduur
rr = neerslag

Weerstations in de omgeving